Location: Albany
(35.0170°S, 117.8920°E)
Time: 21:16:41
(UTC+08:00)

Courier 1B - All Passes

Search period start: 23 January 2021 00:00
Search period end: 02 February 2021 00:00
Orbit: 962 x 1209 km, 28.3° (Epoch: 22 January)

Date Brightness Start Highest point End Pass type
(mag) Time Alt. Az. Time Alt. Az. Time Alt. Az.
23 Jan - 10:23:04 10° NNW 10:28:54 24° NNE 10:34:54 10° ENE daylight
23 Jan - 12:15:16 10° WNW 12:22:34 45° NNE 12:30:00 10° E daylight
23 Jan - 14:08:58 10° WNW 14:16:35 53° N 14:24:09 10° ENE daylight
23 Jan - 16:03:24 10° W 16:10:32 38° NNW 16:17:28 10° NE daylight
23 Jan - 17:59:24 10° WNW 18:04:00 17° NNW 18:08:28 10° N daylight
24 Jan - 09:30:20 10° NNW 09:35:13 19° NNE 09:40:14 10° ENE daylight
24 Jan - 11:21:43 10° NW 11:28:43 40° NNE 11:35:56 10° E daylight
24 Jan - 13:15:07 10° WNW 13:22:41 53° N 13:30:18 10° ENE daylight
24 Jan - 15:09:18 10° W 15:16:40 43° NNW 15:23:56 10° NE daylight
24 Jan - 17:04:35 10° WNW 17:10:19 22° NNW 17:15:54 10° NNE daylight
25 Jan - 08:38:15 10° N 08:41:34 13° NNE 08:44:59 10° ENE daylight
25 Jan - 10:28:20 10° NW 10:34:55 34° NNE 10:41:47 10° E daylight
25 Jan - 12:21:20 10° WNW 12:28:45 52° N 12:36:22 10° ENE daylight
25 Jan - 14:15:19 10° W 14:22:48 48° N 14:30:17 10° ENE daylight
25 Jan - 16:10:07 10° WNW 16:16:34 28° NNW 16:22:54 10° NNE daylight
26 Jan - 09:35:09 10° NNW 09:41:11 28° NNE 09:47:29 10° ENE daylight
26 Jan - 11:27:39 10° WNW 11:34:52 48° N 11:42:22 10° E daylight
26 Jan - 13:21:25 10° W 13:28:54 51° N 13:36:29 10° ENE daylight
26 Jan - 15:15:53 10° W 15:22:47 34° NNW 15:29:37 10° NE daylight
26 Jan - 17:12:40 10° WNW 17:16:14 14° NNW 17:19:45 10° N daylight
27 Jan - 08:42:14 10° NNW 08:47:31 22° NNE 08:53:01 10° ENE daylight
27 Jan - 10:34:05 10° NW 10:41:02 43° NNE 10:48:19 10° E daylight
27 Jan - 12:27:35 10° WNW 12:34:59 53° N 12:42:37 10° ENE daylight
27 Jan - 14:21:48 10° W 14:28:57 39° NNW 14:36:08 10° NE daylight
27 Jan - 16:17:27 10° WNW 16:22:32 19° NNW 16:27:34 10° NNE daylight
28 Jan - 07:49:44 10° N 07:53:54 16° NNE 07:58:12 10° ENE daylight
28 Jan - 09:40:40 10° NW 09:47:15 38° NNE 09:54:11 10° E daylight
28 Jan - 11:33:51 10° WNW 11:41:06 52° N 11:48:40 10° ENE daylight
28 Jan - 13:27:50 10° W 13:35:06 44° NNW 13:42:29 10° ENE daylight
28 Jan - 15:22:50 10° WNW 15:28:48 24° NNW 15:34:46 10° NNE daylight
29 Jan - 06:58:15 10° NNE 07:00:20 11° NNE 07:02:26 10° NE daylight
29 Jan - 08:47:25 10° NW 08:53:32 31° NNE 08:59:59 10° E daylight
29 Jan - 10:40:11 10° WNW 10:47:14 50° N 10:54:40 10° E daylight
29 Jan - 12:33:57 10° W 12:41:13 48° N 12:48:43 10° ENE daylight
29 Jan - 14:28:31 10° WNW 14:35:02 29° NNW 14:41:35 10° NE daylight
29 Jan - 16:27:18 10° NW 16:28:27 10° NNW 16:29:36 10° NNW daylight
30 Jan - 07:54:22 10° NNW 07:59:53 25° NNE 08:05:39 10° ENE daylight
30 Jan - 09:46:37 10° WNW 09:53:25 46° N 10:00:38 10° E daylight
30 Jan - 11:40:10 10° WNW 11:47:20 51° N 11:54:50 10° ENE daylight
30 Jan - 13:34:25 10° W 13:41:13 35° NNW 13:48:10 10° NE daylight
30 Jan - 15:30:43 10° WNW 15:34:45 15° NNW 15:38:48 10° N daylight
31 Jan - 07:01:37 10° NNW 07:06:17 20° NNE 07:11:07 10° ENE daylight
31 Jan - 08:53:10 10° NW 08:59:39 41° NNE 09:06:33 10° E daylight
31 Jan - 10:46:27 10° WNW 10:53:29 52° N 11:00:55 10° ENE daylight
31 Jan - 12:40:27 10° W 12:47:23 40° NNW 12:54:34 10° NE daylight
31 Jan - 14:35:47 10° WNW 14:41:02 20° NNW 14:46:19 10° NNE daylight
01 Feb - 06:09:22 10° N 06:12:44 14° NNE 06:16:10 10° ENE daylight
01 Feb - 07:59:50 10° NW 08:05:57 35° NNE 08:12:26 10° E daylight
01 Feb - 09:52:49 10° WNW 09:59:39 51° N 10:06:56 10° ENE daylight
01 Feb - 11:46:37 10° W 11:53:34 44° N 12:00:51 10° ENE daylight
01 Feb - 13:41:21 10° WNW 13:47:17 25° NNW 13:53:20 10° NNE daylight
